Probability
0 0 0 0 0 0 0 0 0 0 0 0 0 0 0 0 0 0 0 0 0 0 0 0 0 0 0 0 0 0 0 0 0 0 0 0 0 0 0 0 0 0 0 0
0 0 0 0 0 0 0 0 0 0 0 0 0 0 0 0 0 0 0 0 0 0 0 0 0 0 0 0 0 0 0 0 0 0 0 0 0 0 0 0 0 0 0 0
0 0 0 0 0 0 0 0 0 0 0 0 0 0 0 0 0 0 0 0 0 0 0 0 0 0 0 0 0 0 0 0 0 0 0 0 0 0 0 0 0 0 0 0
0 0 0 0 0 0 0 0 0 0 0 0 0 0 0 0 0 0 0 0 0 0 0 0 0 0 0 0 0 0 0 0 0 0 0 0 0 0 0 0 0 0 0 0
0 0 0 0 0 0 0 0 0 0 0 0 0 0 0 0 0 0 0 0 0 0 0 0 0 0 0 0 0 0 0 0 0 0 0 0 0 0 0 0 0 0 0 0
0 0 0 0 0 0 0 0 0 0 0 0 0 0 0 0 0 0 0 0 0 0 0 0 0 0 0 0 0 0 0 0 0 0 0 0 0 0 0 0 0 0 0 0
0 0 0 0 0 0 0 0 0 0 0 0 0 0 0 0 0 0 0 0 0 0 0 0 0 0 0 0 0 0 0 0 0 0 0 0 0 0 0 0 0 0 0 0
0 0 0 0 0 0 0 0 0 0 0 0 0 0 0 0 0 0 0 0 0 0 0 0 0 0 0 0 0 0 0 0 0 0 0 0 0 0 0 0 0 0 0 0
0 0 0 0 0 0 0 0 0 0 0 0 0 0 0 0 0 0 0 0 0 0 0 0 0 0 0 0 0 0 0 0 0 0 0 0 0 0 0 0 0 0 0 0
0 0 0 0 0 0 0 0 0 0 0 0 0 0 0 0 0 0 0 0 0 0 0 0 0 0 0 0 0 0 0 0 0 0 0 0 0 0 0 0 0 0 0 0
0 0 0 0 0 0 0 0 0 0 0 0 0 0 0 0 0 0 0 0 0 0 0 0 0 0 0 0 0 0 0 0 0 0 0 0 0 0 0 0 0 0 0 0
0 0 0 0 0 0 0 0 0 0 0 0 0 0 0 0 0 0 0 0 0 0 0 0 0 0 0 0 0 0 0 0 0 0 0 0 0 0 0 0 0 0 0 0
0 0 0 0 0 0 0 0 0 0 0 0 0 0 0 0 0 0 0 0 0 0 0 0 0 0 0 0 0 0 0 0 0 0 0 0 0 0 0 0 0 0 0 0
0 0 0 0 0 0 0 0 0 0 0 0 0 0 0 0 0 0 0 0 0 0 0 0 0 0 0 0 0 0 0 0 0 0 0 0 0 0 0 0 0 0 0 0
0 0 0 0 0 0 0 0 0 0 0 0 0 0 0 0 0 0 0 0 0 0 0 0 0 0 0 0 0 0 0 0 0 0 0 0 0 0 0 0 0 0 0 0
0 0 0 0 0 0 0 0 0 0 0 0 0 0 0 0 0 0 0 0 0 0 0 0 0 0 0 0 0 0 0 0 0 0 0 0 0 0 0 0 0 0 0 0
0 0 0 0 0 0 0 0 0 0 0 0 0 0 0 0 0 0 0 0 0 0 0 0 0 0 0 0 0 0 0 0 0 0 0 0 0 0 0 0 0 0 0 0
0 0 0 0 0 0 0 0 0 0 0 0 0 0 0 0 0 0 0 0 0 0 0 0 0 0 0 0 0 0 0 0 0 0 0 0 0 0 0 0 0 0 0 0
0 0 0 0 0 0 0 0 0 0 0 0 0 0 0 0 0 0 0 0 0 0 0 0 0 0 0 0 0 0 0 0 0 0 0 0 0 0 0 0 0 0 0 0
0 0 0 0 0 0 0 0 0 0 0 0 0 0 0 0 0 0 0 0 0 0 0 0 0 0 0 0 0 0 0 0 0 0 0 0 0 0 0 0 0 0 0 0
0 0 0 0 0 0 0 0 0 0 0 0 0 0 0 0 0 0 0 0 0 0 0 0 0 0 0 0 0 0 0 0 0 0 0 0 0 0 0 0 0 0 0 0
0 0 0 0 0 0 0 0 0 0 0 0 0 0 0 0 0 0 0 0 0 0 0 0 0 0 0 0 0 0 0 0 0 0 0 0 0 0 0 0 0 0 0 0
0 0 0 0 0 0 0 0 0 0 0 0 0 0 0 0 0 0 0 0 0 0 0 0 0 0 0 0 0 0 0 0 0 0 0 0 0 0 0 0 0 0 0 0
0 0 0 0 0 0 0 0 0 0 0 0 0 0 0 0 0 0 0 0 0 0 0 0 0 0 0 0 0 0 0 0 0 0 0 0 0 0 0 0 0 0 0 0
0 0 0 0 0 0 0 0 0 0 0 0 0 0 0 0 0 0 0 0 0 0 0 0 0 0 0 0 0 0 0 0 0 0 0 0 0 0 0 0 0 0 0 0
0 0 0 0 0 0 0 0 0 0 0 0 0 0 0 0 0 0 0 0 0 0 0 0 0 0 0 0 0 0 0 0 0 0 0 0 0 0 0 0 0 0 0 0
Height
5692 5693 5692 5691 5690 5690 5689 5688 5687 5687 5686 5685 5685 5685 5686 5685 5685 5686 5686 5687 5687 5688 5690 5691 5692 5694 5696 5698 5700 5701 5703 5704 5706 5707 5709 5711 5712 5713 5714 5715 5717 5718 5719 5720
5687 5686 5686 5685 5684 5683 5682 5681 5680 5680 5679 5677 5677 5677 5677 5677 5677 5677 5677 5678 5679 5679 5680 5682 5683 5685 5686 5688 5689 5691 5693 5694 5695 5697 5698 5700 5702 5703 5704 5705 5706 5707 5708 5709
5680 5681 5680 5678 5677 5676 5675 5674 5673 5672 5671 5670 5668 5669 5669 5669 5668 5669 5669 5669 5670 5671 5672 5673 5674 5675 5676 5678 5679 5680 5682 5683 5685 5686 5688 5689 5690 5691 5693 5694 5695 5696 5697 5697
5674 5674 5673 5672 5670 5669 5668 5667 5666 5664 5663 5662 5661 5658 5662 5660 5660 5660 5661 5660 5661 5661 5662 5663 5664 5665 5666 5667 5668 5670 5671 5672 5673 5675 5677 5678 5680 5681 5681 5683 5683 5684 5685 5685
5668 5668 5667 5665 5664 5662 5661 5660 5658 5657 5655 5654 5653 5650 5653 5652 5651 5651 5652 5652 5652 5652 5653 5654 5655 5656 5657 5657 5658 5659 5660 5661 5662 5664 5665 5667 5668 5669 5670 5671 5672 5672 5673 5673
5662 5661 5659 5658 5657 5655 5653 5652 5650 5648 5647 5646 5647 5643 5643 5644 5643 5642 5642 5643 5642 5643 5643 5644 5645 5646 5647 5647 5648 5649 5649 5650 5651 5653 5654 5655 5657 5658 5658 5659 5660 5660 5661 5661
5655 5654 5652 5651 5649 5648 5646 5645 5642 5640 5638 5639 5639 5636 5637 5636 5636 5635 5634 5633 5633 5633 5634 5635 5635 5636 5637 5637 5638 5638 5639 5639 5640 5641 5643 5644 5645 5646 5647 5647 5648 5648 5648 5648
5646 5646 5645 5643 5642 5640 5638 5637 5636 5633 5631 5631 5630 5629 5631 5629 5627 5626 5625 5624 5624 5624 5625 5625 5626 5626 5627 5627 5628 5628 5628 5628 5629 5630 5631 5632 5633 5634 5634 5635 5635 5636 5636 5636
5639 5638 5638 5636 5634 5632 5631 5629 5629 5626 5624 5623 5622 5623 5623 5622 5620 5618 5617 5616 5615 5616 5615 5616 5616 5616 5617 5617 5618 5618 5618 5618 5618 5619 5620 5621 5621 5622 5622 5623 5623 5623 5623 5623
5631 5630 5630 5628 5626 5625 5624 5622 5621 5618 5616 5614 5614 5615 5615 5614 5612 5610 5609 5607 5607 5607 5607 5606 5607 5607 5607 5607 5607 5608 5608 5608 5608 5608 5609 5609 5609 5610 5610 5610 5611 5611 5611 5611
5623 5622 5622 5620 5619 5617 5617 5616 5613 5611 5610 5608 5606 5610 5608 5606 5604 5602 5600 5599 5599 5598 5598 5597 5597 5598 5598 5598 5598 5597 5597 5597 5597 5597 5597 5597 5598 5598 5598 5598 5599 5599 5599 5598
5616 5614 5612 5612 5611 5609 5609 5608 5606 5605 5603 5601 5599 5602 5600 5598 5596 5594 5593 5591 5590 5590 5590 5589 5589 5588 5588 5588 5588 5588 5588 5587 5587 5587 5586 5586 5586 5587 5587 5587 5587 5587 5587 5587
5608 5606 5604 5603 5604 5603 5601 5600 5598 5597 5595 5593 5591 5594 5592 5590 5588 5586 5585 5584 5582 5581 5581 5580 5580 5579 5579 5579 5579 5578 5578 5577 5577 5576 5576 5575 5576 5575 5575 5575 5575 5576 5575 5575
5599 5598 5598 5597 5595 5593 5593 5592 5591 5589 5587 5585 5584 5584 5584 5582 5580 5579 5577 5575 5573 5572 5572 5572 5571 5571 5570 5570 5569 5569 5568 5568 5567 5566 5566 5566 5565 5564 5564 5564 5564 5564 5564 5564
5591 5590 5589 5588 5586 5585 5585 5584 5583 5581 5579 5577 5577 5575 5575 5573 5571 5570 5568 5567 5565 5565 5564 5563 5562 5562 5561 5560 5560 5559 5558 5558 5557 5557 5556 5556 5555 5554 5553 5553 5553 5553 5553 5553
5583 5581 5580 5580 5579 5576 5576 5576 5574 5572 5571 5568 5567 5567 5566 5564 5562 5561 5560 5558 5557 5556 5555 5554 5554 5553 5552 5551 5550 5550 5549 5549 5548 5547 5547 5546 5545 5544 5543 5543 5543 5543 5543 5543
5575 5573 5571 5571 5570 5567 5567 5569 5566 5564 5562 5560 5558 5559 5557 5555 5554 5552 5551 5550 5548 5547 5546 5545 5544 5544 5543 5542 5541 5541 5540 5539 5539 5538 5537 5537 5536 5535 5534 5533 5533 5532 5532 5532
5567 5564 5562 5561 5561 5559 5562 5560 5557 5555 5553 5552 5550 5549 5548 5546 5545 5544 5542 5541 5539 5538 5537 5536 5536 5535 5534 5533 5533 5532 5531 5530 5530 5529 5528 5528 5527 5526 5525 5524 5523 5523 5522 5523
5558 5556 5554 5552 5550 5550 5552 5551 5548 5545 5545 5544 5542 5541 5539 5537 5536 5535 5533 5532 5531 5529 5528 5528 5527 5526 5525 5525 5524 5523 5522 5521 5521 5520 5519 5518 5517 5516 5515 5514 5514 5513 5513 5513
5551 5549 5547 5544 5542 5541 5544 5542 5539 5537 5536 5536 5534 5532 5530 5528 5527 5527 5524 5522 5521 5520 5519 5519 5518 5517 5517 5516 5516 5515 5513 5512 5512 5511 5510 5509 5508 5507 5506 5505 5505 5504 5504 5504
5543 5541 5539 5536 5533 5534 5535 5533 5531 5530 5529 5527 5525 5523 5521 5519 5518 5516 5514 5513 5512 5511 5510 5509 5509 5509 5508 5508 5507 5506 5506 5505 5504 5503 5502 5501 5500 5499 5498 5497 5496 5496 5495 5495
5535 5533 5532 5529 5527 5529 5527 5525 5524 5522 5520 5518 5517 5515 5513 5511 5509 5507 5506 5504 5503 5502 5501 5501 5500 5500 5500 5499 5499 5498 5498 5497 5496 5495 5493 5492 5491 5490 5489 5489 5488 5488 5487 5487
5528 5527 5524 5523 5523 5520 5518 5517 5515 5514 5512 5511 5509 5508 5505 5503 5501 5500 5498 5496 5495 5494 5494 5493 5493 5492 5492 5492 5491 5491 5490 5489 5488 5487 5486 5485 5484 5483 5482 5482 5481 5480 5480 5480
5521 5519 5517 5515 5514 5512 5511 5509 5508 5506 5505 5503 5501 5500 5498 5496 5494 5492 5491 5489 5488 5487 5486 5486 5486 5485 5485 5484 5484 5484 5483 5483 5482 5481 5480 5479 5478 5477 5476 5475 5474 5473 5473 5473
5514 5511 5509 5508 5507 5505 5504 5502 5501 5499 5497 5496 5494 5493 5491 5489 5487 5486 5484 5483 5481 5480 5480 5479 5479 5478 5478 5478 5477 5477 5476 5476 5475 5475 5473 5472 5471 5470 5470 5469 5468 5467 5467 5467
5507 5504 5502 5501 5500 5498 5497 5495 5493 5492 5490 5489 5488 5486 5484 5482 5480 5479 5477 5476 5475 5474 5473 5473 5472 5472 5471 5471 5471 5470 5470 5469 5469 5468 5467 5466 5465 5464 5464 5463 5462 5462 5461 5461
Wind_Speed
21 21 21 22 23 25 26 27 28 28 29 30 31 32 32 33 33 33 34 34 35 35 36 36 37 38 39 40 40 41 41 42 43 43 43 43 43 43 44 44 45 45 46 46
22 22 22 23 24 26 27 27 28 29 30 31 32 32 32 32 32 32 32 33 34 35 36 37 37 37 39 39 41 42 42 43 43 43 44 44 44 44 44 45 45 46 47 47
23 23 23 24 25 26 27 28 28 29 30 31 33 32 32 32 32 32 32 33 34 36 36 37 39 38 39 40 40 41 42 43 43 44 44 44 44 44 44 45 46 46 47 47
24 24 24 25 26 27 28 28 29 30 31 31 31 33 30 30 31 32 32 32 34 35 36 37 38 39 39 40 39 40 42 42 43 43 44 45 44 45 46 47 48 48 47 48
26 25 25 26 26 27 28 28 29 30 32 32 31 34 30 29 30 31 32 32 34 34 35 37 37 38 39 39 39 40 41 41 42 43 44 45 45 46 46 47 47 47 48 48
27 27 27 27 27 28 28 29 30 31 32 33 31 33 31 29 30 30 31 32 33 34 34 35 36 37 38 39 39 40 41 42 43 43 43 44 44 45 46 46 47 47 48 49
28 28 28 29 28 28 28 29 30 32 32 33 31 32 31 30 29 30 30 32 32 33 34 35 35 36 37 38 38 39 40 42 43 44 44 43 44 45 46 46 46 47 47 48
28 28 28 28 29 30 29 29 30 32 32 33 31 32 30 30 30 31 31 31 33 33 34 35 35 35 36 37 37 38 39 40 41 43 44 44 45 45 45 45 45 46 46 47
29 29 28 29 29 30 30 30 30 32 33 33 32 32 31 30 31 32 31 32 33 34 34 35 35 35 35 36 36 37 38 38 39 41 42 43 44 45 45 45 45 46 46 46
29 30 29 29 29 29 29 29 29 31 32 33 33 32 31 31 31 32 32 31 32 33 33 34 35 35 35 36 36 37 37 37 38 39 41 42 42 43 44 44 44 44 45 46
30 31 30 30 29 29 28 28 29 31 32 33 34 32 31 31 32 32 32 32 32 32 32 32 33 34 35 36 36 36 37 38 38 39 39 41 41 41 42 42 43 43 43 43
31 32 32 31 30 29 29 28 30 31 32 34 35 33 31 31 32 31 31 32 31 32 31 31 32 33 34 35 36 36 37 37 37 38 39 39 40 40 41 41 42 42 41 42
32 32 33 32 30 29 29 30 31 33 34 34 35 34 32 32 32 32 32 32 32 32 31 31 31 32 33 34 34 35 35 36 37 37 38 38 38 38 39 40 40 41 40 40
32 32 32 32 31 30 30 30 31 32 34 35 35 34 33 32 32 32 32 32 32 32 32 31 31 31 32 33 34 34 35 35 35 36 36 36 36 35 36 37 38 38 39 38
32 33 32 31 31 31 30 31 32 33 33 34 33 33 33 33 33 33 33 32 32 32 32 31 31 31 32 32 33 34 34 34 34 34 34 35 34 35 34 35 36 36 36 37
32 32 32 31 32 32 32 31 32 33 33 33 34 33 32 32 33 33 33 33 32 32 32 32 32 32 32 32 32 32 33 33 33 33 34 34 34 34 33 34 35 35 36 36
32 32 32 32 32 33 33 31 32 33 33 33 32 31 32 32 32 33 33 33 32 33 33 32 32 31 31 31 31 31 32 32 32 32 33 33 33 33 33 34 34 34 34 35
33 33 34 34 33 34 33 32 33 33 32 32 32 31 31 31 32 32 32 32 32 32 32 31 31 31 31 31 31 30 31 32 32 32 32 33 33 33 34 34 34 34 34 34
32 33 33 33 34 34 33 32 32 32 31 30 31 31 31 31 31 31 32 32 31 32 31 31 31 31 31 31 30 30 30 31 31 32 31 31 32 33 33 33 33 33 32 32
31 31 31 31 32 32 31 30 30 31 30 30 30 31 31 32 31 31 32 32 32 32 31 31 31 31 30 30 30 30 30 30 30 30 30 30 31 32 33 32 32 32 31 31
30 30 30 30 31 31 30 29 28 30 30 29 29 29 30 30 30 30 30 31 31 31 31 30 30 29 29 29 29 29 28 29 28 29 29 30 31 31 31 31 31 30 30 30
30 30 30 30 31 30 29 28 28 29 29 29 28 28 29 29 28 28 28 28 29 29 28 28 28 27 27 26 26 26 26 26 26 26 27 27 28 28 28 27 27 28 28 27
29 29 29 29 29 29 27 28 29 29 29 28 27 27 27 27 27 27 27 26 26 26 26 26 26 25 25 24 24 24 24 24 24 24 24 25 25 25 25 25 24 24 24 24
29 29 29 28 27 27 28 28 28 28 27 27 26 25 26 25 25 25 24 24 23 24 24 24 24 24 24 24 23 23 23 23 23 24 23 23 24 23 23 22 22 22 21 21
28 28 27 27 28 28 27 28 28 28 26 26 25 25 25 25 24 24 23 22 22 22 23 23 23 23 22 22 22 22 23 23 23 23 23 22 22 21 21 20 20 19 19 19
27 27 27 27 28 28 27 27 27 26 25 25 25 25 25 25 25 24 23 22 22 22 23 23 23 22 22 21 21 22 22 22 23 23 22 21 21 20 20 19 19 18 18 18
Wind_Direction
280 278 278 281 281 279 279 279 278 277 277 277 277 276 275 273 271 268 266 265 264 262 260 259 259 258 256 255 256 256 256 256 256 256 257 258 259 260 260 260 261 262 262 263
280 279 280 282 282 279 280 279 279 279 279 279 277 276 275 274 272 271 269 266 264 261 259 259 259 258 257 258 258 256 256 257 257 257 258 259 259 260 260 261 262 263 264 265
281 281 281 284 284 281 280 280 280 280 280 281 281 278 277 276 274 271 268 266 264 262 260 260 259 260 259 259 259 258 256 256 257 257 257 259 260 261 261 261 262 263 265 265
282 281 282 285 286 284 282 281 281 281 282 283 283 282 280 279 276 273 270 268 266 263 261 260 260 261 262 262 261 260 258 258 258 258 259 261 262 263 263 263 264 264 265 265
283 282 283 285 288 288 285 282 281 282 282 283 284 284 285 282 279 275 272 270 268 265 264 264 263 263 264 264 262 261 260 260 261 261 260 261 262 263 265 265 265 265 266 266
284 284 284 287 288 288 287 285 282 282 282 283 284 284 285 285 282 280 275 272 270 268 268 267 266 264 265 265 264 263 261 261 262 262 262 263 263 264 265 265 266 266 267 268
285 285 285 287 288 287 287 286 284 282 283 285 286 285 285 286 285 282 279 274 272 270 269 268 269 267 266 266 266 264 264 263 263 264 263 264 265 265 266 266 267 268 268 269
286 287 288 288 287 287 286 285 284 285 285 287 286 286 287 285 285 284 281 276 272 271 271 270 269 268 267 268 268 266 265 265 264 264 264 265 266 266 266 266 267 268 269 268
288 288 289 288 287 286 285 283 284 285 285 286 287 288 288 286 285 284 283 278 275 272 272 270 269 269 268 268 268 267 267 267 266 266 266 265 267 267 266 266 267 269 269 268
286 288 288 287 286 284 283 283 283 284 287 289 289 289 290 290 289 286 284 280 276 274 274 272 270 269 269 269 269 268 268 268 267 268 267 266 267 268 266 267 268 269 269 269
286 287 287 286 284 283 281 280 282 284 285 288 290 291 291 290 289 288 285 282 278 275 274 272 271 270 268 268 269 269 269 269 269 270 269 268 269 269 269 268 268 270 270 271
286 287 286 286 283 281 280 281 282 282 284 285 288 290 291 290 286 287 286 282 278 275 274 272 271 270 270 269 270 269 270 271 271 272 272 271 270 271 270 269 269 270 271 270
285 285 286 285 283 281 281 281 282 282 283 285 287 288 289 287 285 286 285 282 279 277 276 274 272 272 271 270 270 270 271 273 274 274 273 273 273 273 271 269 269 270 270 270
285 284 284 284 283 282 282 282 282 283 283 284 285 286 285 284 283 284 284 282 279 278 276 275 273 272 272 271 272 272 272 273 274 274 274 273 273 274 272 271 270 270 269 270
285 284 282 281 279 280 281 281 282 282 282 282 284 283 284 282 282 283 283 281 279 277 276 275 275 274 274 274 274 274 273 273 273 274 275 274 273 273 272 271 270 270 270 270
285 286 283 279 279 280 281 282 282 282 281 282 282 282 282 281 281 282 282 280 278 276 275 274 275 276 276 276 276 275 274 274 274 275 275 275 274 274 273 272 271 270 270 270
286 286 284 282 281 281 281 284 283 282 282 281 281 281 280 280 280 281 282 282 280 278 278 277 276 276 276 276 276 275 275 275 274 275 275 275 275 275 274 274 272 271 271 271
286 285 284 282 282 282 284 285 284 283 282 280 280 281 281 282 281 281 281 281 281 280 279 278 277 276 276 277 278 278 277 275 275 276 276 276 275 276 276 276 275 274 273 271
286 287 285 283 284 285 286 287 286 285 283 282 283 284 284 285 283 282 281 281 280 280 279 278 277 276 276 277 278 278 279 278 277 277 277 276 276 277 278 277 275 274 274 272
287 288 286 284 284 286 289 288 287 286 285 285 287 287 287 287 286 285 282 280 280 280 279 277 276 276 277 278 278 278 279 279 278 277 277 278 278 278 279 278 277 275 274 272
289 289 288 286 284 285 287 286 285 284 286 286 286 288 289 289 289 287 284 282 280 279 278 277 277 277 278 278 278 277 277 279 279 279 279 279 279 279 279 279 277 276 274 273
291 290 289 287 286 286 286 284 284 284 285 286 288 289 289 288 287 286 284 282 280 278 277 276 276 276 277 278 277 276 276 278 280 281 281 280 280 281 281 279 278 277 276 275
291 290 289 288 287 285 284 282 283 284 285 287 289 289 289 289 287 286 285 282 279 277 275 274 275 276 278 278 277 277 277 278 280 282 283 282 281 281 281 280 278 276 275 275
291 291 288 286 286 283 281 281 282 284 285 286 287 288 289 289 288 287 286 284 280 278 276 275 275 277 277 278 276 276 276 279 282 284 286 285 283 282 281 280 277 276 275 275
292 292 288 285 284 282 281 283 284 285 285 285 284 286 290 290 287 286 285 283 281 278 276 276 278 278 278 277 276 276 277 279 282 284 284 284 283 283 283 280 277 277 277 274
291 290 287 286 285 283 283 283 285 284 284 286 286 287 289 288 287 284 283 281 280 279 277 276 277 278 277 277 276 278 280 280 282 284 283 282 283 286 284 280 277 276 275 273